Tracking 19795 objects as of 20-Jul-2019
HD Live streaming from Space Station
objects crossing your sky now

COSMOS 1275 DEB

Track COSMOS 1275 DEB now!
10-day predictions


NORAD ID: 42143
Int'l Code: 1981-053RF
Perigee: 916.4 km
Apogee: 1,064.0 km
Inclination: 83.0 °
Period: 104.8 minutes
Semi major axis: 7361 km
RCS: Unknown
Launch date: June 4, 1981
Source: Commonwealth of Independent States (former USSR) (CIS)
Launch site: PLESETSK MISSILE AND SPACE COMPLEX (PKMTR)

Note: This is SATELLITE DEBRIS
aabbcc
Your satellite tracking list
Your tracking list is empty




NASA's NSSDC Master Catalog

Two Line Element Set (TLE):
1 42143U 81053RF  19193.86942976 +.00000400 +00000-0 +39303-3 0  9990
2 42143 083.0177 250.9715 0100285 274.0900 084.8799 13.74604327282542
Source of the keplerian elements: AFSPC